Home > Weather > Bismarck > Past weeks

Flag for U.S.A. Weather for the Past 2 Weeks in Bismarck, North Dakota, U.S.A.

Now
30 °F

Clear.


Feels Like: 15 °F
Forecast: 24 / 30 °F
Wind: 28 mph from Northwest

Location: Bismarck Municipal Airport

Current Time: Feb 8, 2016 at 12:19:08 AM

Latest Report: Feb 7, 2016 at 11:52 PM


Visibility: 10 mi

Pressure: 30.24 "Hg (28.35 "Hg at 513m altitude)

Humidity: 59%

Dew point: 17 °F

Location of BismarckLocation

Historic Weather in Bismarck — Graph

°F

Bismarck Temperature Yesterday

Maximum temperature yesterday: 40 °F (at 12:52 AM)
Minimum temperature yesterday: 30 °F (at 10:52 PM)
Average temperature yesterday: 36 °F

High & Low Weather Summary for the Past Weeks

 TemperatureHumidityPressure
High53 °F (Feb 6, 3:52 PM)89% (Jan 31, 12:52 AM)30.26 "Hg (Jan 31, 12:52 AM)
Low12 °F (Jan 26, 9:52 PM)30% (Feb 4, 3:52 PM)29.49 "Hg (Jan 30, 2:52 AM)
Average33 °F68%29.94 "Hg
* Reported Jan 23 10:52 PM — Feb 7 10:52 PM, Bismarck, Weather by CustomWeather, © 2016

Note: Actual official high and low records may vary slightly from our data, if they occured in-between our weather recording intervals... More about our weather records

Advertising

Bismarck Weather History for the Previous 24 Hours

 ConditionsComfort  
Time TempWeatherWind HumidityBarometerVisibility
10:52 PM
Sun, Feb 7
30 °FClear.29 mph59%30.22 "Hg10 mi
9:52 PM32 °FPassing clouds.28 mph56%30.22 "Hg10 mi
8:52 PM33 °FPassing clouds.29 mph56%30.19 "Hg10 mi
7:52 PM36 °FMostly cloudy.22 mph52%30.16 "Hg10 mi
6:52 PM36 °FMostly cloudy.21 mph48%30.15 "Hg10 mi
5:52 PM36 °FPassing clouds.33 mph46%30.12 "Hg10 mi
4:52 PM38 °FPassing clouds.31 mph41%30.09 "Hg10 mi
3:52 PM36 °FPartly sunny.25 mph46%30.07 "Hg10 mi
2:52 PM34 °FOvercast.31 mph52%30.05 "Hg10 mi
1:52 PM34 °FOvercast.39 mph54%30.02 "Hg10 mi
12:52 PM33 °FOvercast.39 mph56%30.01 "Hg9 mi
11:52 AM33 °FMostly cloudy.38 mph54%29.98 "Hg10 mi
10:52 AM33 °FLight rain. Overcast.31 mph61%29.94 "Hg10 mi
9:52 AM34 °FOvercast.32 mph59%29.89 "Hg10 mi
8:52 AM35 °FMostly cloudy.29 mph61%29.85 "Hg9 mi
7:52 AM35 °FLight snow. Overcast.21 mph75%29.83 "Hg7 mi
6:52 AM36 °FLight snow. Mostly cloudy.25 mph70%29.82 "Hg6 mi
5:52 AM39 °FOvercast.20 mph48%29.80 "Hg10 mi
4:52 AM38 °FPassing clouds.20 mph58%29.81 "Hg10 mi
3:52 AM38 °FClear.17 mph58%29.81 "Hg10 mi
2:52 AM39 °FClear.26 mph57%29.82 "Hg10 mi
1:52 AM39 °FClear.25 mph53%29.81 "Hg10 mi
12:52 AM40 °FClear.22 mph51%29.82 "Hg10 mi
Weather by CustomWeather, © 2016

See weather overviewHow to use our weather pages